Home > Time Zones > World Clock > Weather > U.S.A. > Gary > Past weeks

Flag for U.S.A. Weather past 2 weeks in Gary, Indiana, U.S.A.

Now
28 °F

Passing clouds.


Feels Like: 20 °F
Forecast: 24 / 39 °F
Wind: 7 mph from Southwest

Location: Lansing Municipal Airport

Current Time: Mar 2, 2015 at 6:17:50 PM

Latest Report: Mar 2, 2015 at 5:55 PM


Visibility: 10 mi

Pressure: 30.40 "Hg

Humidity: 59%

Dew point: 15 °F

Location of GaryLocation

Historic Weather in Gary — Graph

°F

Gary temperature yesterday

Maximum temperature yesterday: 27 °F (at 2:35 PM)
Minimum temperature yesterday: 15 °F (at 5:35 AM)
Average temperature yesterday: 20 °F

Past Weeks' High & Low Weather Summary

 TemperatureHumidityPressure
High31 °F (Mar 2, 2:15 PM)95% (Mar 1, 6:35 AM)30.74 "Hg (Mar 1, 6:35 AM)
Low-12 °F (Feb 28, 6:55 AM)35% (Feb 23, 1:15 PM)29.72 "Hg (Feb 24, 4:55 PM)
Average13 °F66%30.26 "Hg
* Reported Feb 15 5:15 PM — Mar 2 5:15 PM, Gary, Weather by CustomWeather, © 2015

Note: Actual official high and low records may vary slightly from our data, if they occured in-between our weather recording intervals... More about our weather records

Advertising

Gary weather history for previous 24 hours

 ConditionsComfort  
Time TempWeatherWind HumidityBarometerVisibility
5:15 PM
Mon, Mar 2
28 °FClear.9 mph58%30.42 "Hg10 mi
4:55 PM29 °FClear.6 mph57%30.42 "Hg10 mi
4:35 PM30 °FSunny.6 mph57%30.42 "Hg10 mi
4:15 PM30 °FSunny.8 mph58%30.42 "Hg10 mi
3:55 PM30 °FSunny.7 mph55%30.43 "Hg10 mi
3:15 PM31 °FSunny.3 mph57%30.44 "Hg10 mi
2:55 PM31 °FSunny.No wind51%30.44 "Hg10 mi
2:35 PM31 °FSunny.5 mph53%30.45 "Hg10 mi
2:15 PM31 °FSunny.No wind49%30.46 "Hg10 mi
1:55 PM30 °FSunny.No wind49%30.46 "Hg10 mi
1:35 PM30 °FSunny.No wind54%30.48 "Hg10 mi
1:15 PM29 °FSunny.3 mph54%30.49 "Hg10 mi
12:55 PM29 °FSunny.5 mph55%30.50 "Hg10 mi
12:35 PM29 °FSunny.5 mph55%30.51 "Hg10 mi
12:15 PM28 °FSunny.3 mph57%30.51 "Hg10 mi
11:55 AM28 °FSunny.3 mph58%30.52 "Hg10 mi
11:35 AM27 °FSunny.3 mph60%30.53 "Hg10 mi
11:15 AM27 °FSunny.No wind58%30.53 "Hg10 mi
10:55 AM26 °FSunny.3 mph59%30.53 "Hg10 mi
10:35 AM26 °FSunny.No wind58%30.53 "Hg10 mi
10:15 AM26 °FSunny.No wind59%30.52 "Hg10 mi
9:55 AM24 °FSunny.No wind61%30.52 "Hg10 mi
9:35 AM23 °FSunny.6 mph65%30.52 "Hg10 mi
9:15 AM21 °FSunny.8 mph67%30.52 "Hg10 mi
8:55 AM20 °FSunny.5 mph72%30.52 "Hg10 mi
8:35 AM16 °FSunny.3 mph93%30.51 "Hg10 mi
8:15 AM12 °FSunny.3 mph91%30.50 "Hg10 mi
7:55 AM9 °FSunny.No wind89%30.50 "Hg10 mi
7:35 AM8 °FSunny.3 mph89%30.49 "Hg7 mi
7:15 AM5 °FIce fog.5 mph86%30.49 "Hg5 mi
6:55 AM6 °FSunny.3 mph86%30.49 "Hg7 mi
6:35 AM6 °FSunny.3 mph88%30.48 "Hg7 mi
6:15 AM6 °FSunny.5 mph87%30.48 "Hg10 mi
5:55 AM5 °FSunny.5 mph89%30.47 "Hg7 mi
5:15 AM7 °FClear.3 mph87%30.46 "Hg10 mi
4:55 AM9 °FClear.3 mph89%30.46 "Hg10 mi
4:35 AM8 °FClear.6 mph90%30.45 "Hg10 mi
4:15 AM5 °FClear.3 mph85%30.45 "Hg10 mi
3:55 AM5 °FClear.3 mph87%30.44 "Hg10 mi
3:35 AM6 °FClear.No wind88%30.43 "Hg10 mi
3:15 AM4 °FClear.No wind87%30.43 "Hg7 mi
2:55 AM7 °FClear.3 mph88%30.43 "Hg10 mi
2:35 AM9 °FClear.3 mph75%30.43 "Hg10 mi
2:15 AM15 °FClear.6 mph75%30.42 "Hg10 mi
1:55 AM17 °FClear.5 mph73%30.42 "Hg10 mi
1:35 AM17 °FClear.6 mph73%30.42 "Hg10 mi
1:15 AM17 °FClear.6 mph73%30.42 "Hg10 mi
12:55 AM17 °FClear.6 mph73%30.40 "Hg10 mi
12:35 AM17 °FClear.6 mph77%30.39 "Hg10 mi
12:15 AM17 °FClear.7 mph78%30.39 "Hg10 mi
11:55 PM
Sun, Mar 1
18 °FClear.8 mph77%30.38 "Hg10 mi
11:35 PM18 °FClear.9 mph79%30.37 "Hg10 mi
11:15 PM19 °FClear.10 mph79%30.37 "Hg10 mi
10:55 PM19 °FClear.13 mph79%30.36 "Hg10 mi
10:35 PM18 °FClear.10 mph81%30.36 "Hg10 mi
10:15 PM18 °FClear.8 mph80%30.36 "Hg10 mi
9:55 PM19 °FClear.7 mph79%30.34 "Hg10 mi
9:15 PM18 °FClear.8 mph80%30.33 "Hg10 mi
8:55 PM18 °FClear.7 mph79%30.32 "Hg10 mi
8:15 PM18 °FClear.8 mph80%30.31 "Hg10 mi
7:55 PM19 °FClear.8 mph79%30.32 "Hg10 mi
7:35 PM19 °FClear.9 mph79%30.31 "Hg10 mi
7:15 PM20 °FClear.9 mph79%30.31 "Hg10 mi
6:55 PM21 °FPassing clouds.9 mph78%30.31 "Hg10 mi
6:35 PM21 °FPassing clouds.13 mph77%30.30 "Hg10 mi
Weather by CustomWeather, © 2015

See weather overviewHow to use our weather pages